EW0139 Weather Reports


time (UTC)temp
F
wind
direction
speed
knots
gust
knots
rain 1hr
in
rain 24hr
in
rain mn
in
humidity
%
barometer
mb
20260905193801 79 288 13.0 19.1 0.00 0.00 0.00 48 1013.2
20260905192250 79 288 12.2 19.1 0.00 0.00 0.00 47 1013.6
20260905190819 78 288 12.2 21.7 0.00 0.00 0.00 48 1013.5
20260905185241 78 279 12.2 18.2 0.00 0.00 0.00 49 1013.6
20260905183752 79 306 14.8 19.1 0.00 0.00 0.00 48 1013.6
20260905182256 78 296 16.5 20.9 0.00 0.00 0.00 49 1013.6
20260905180742 77 289 10.4 18.2 0.00 0.00 0.00 49 1013.5
20260905175250 76 281 9.6 18.2 0.00 0.00 0.00 51 1013.6
20260905173819 75 306 11.3 15.6 0.00 0.00 0.00 53 1013.4
20260905172248 75 293 14.8 19.1 0.00 0.00 0.00 53 1013.4
20260905170754 74 281 11.3 17.4 0.00 0.00 0.00 53 1014.0
20260905165244 74 307 13.9 17.4 0.00 0.00 0.00 53 1013.6
20260905163753 72 258 13.0 18.2 0.00 0.00 0.00 53 1013.6
20260905162259 69 293 10.4 19.1 0.00 0.00 0.00 53 1013.2
20260905160749 68 264 13.9 20.0 0.00 0.00 0.00 56 1013.6
20260905155255 67 288 11.3 19.1 0.00 0.00 0.00 56 1014.1
20260905153744 66 294 13.0 16.5 0.00 0.00 0.00 58 1013.9
20260905152248 65 293 13.9 19.1 0.00 0.00 0.00 60 1014.3
20260905150757 65 300 13.0 18.2 0.00 0.00 0.00 59 1014.2
20260905145307 64 253 12.2 16.5 0.00 0.00 0.00 60 1014.1
20260905143752 63 281 13.9 15.6 0.00 0.00 0.00 61 1013.8
20260905142243 62 281 15.6 15.6 0.00 0.00 0.00 62 1013.7
20260905140751 61 281 10.4 15.6 0.00 0.00 0.00 63 1013.2
20260905135257 59 271 7.8 12.2 0.00 0.00 0.00 65 1013.2
20260905133746 56 257 7.0 8.7 0.00 0.00 0.00 66 1012.8
20260905132251 55 259 4.3 8.7 0.00 0.00 0.00 67 1012.4
20260905130756 54 261 5.2 10.4 0.00 0.00 0.00 67 1012.0
20260905125249 54 252 8.7 9.6 0.00 0.00 0.00 67 1011.7
20260905123757 54 284 8.7 8.7 0.00 0.00 0.00 67 1011.2
20260905122308 55 286 0.0 5.2 0.00 0.00 0.00 65 1011.4
20260905120753 55 284 0.9 6.1 0.00 0.00 0.00 64 1011.2
20260905115257 55 257 8.7 8.7 0.00 0.00 0.00 64 1012.2
20260905113747 56 275 1.7 4.3 0.00 0.00 0.00 62 1012.4
20260905112254 57 265 0.9 4.3 0.00 0.00 0.00 61 1012.5
20260905110801 57 273 6.1 8.7 0.00 0.00 0.00 60 1012.4
20260905105250 58 273 7.8 11.3 0.00 0.00 0.00 59 1012.2
20260905103752 59 275 11.3 11.3 0.00 0.00 0.00 56 1011.8
20260905102306 61 292 7.8 12.2 0.00 0.00 0.00 56 1011.5
20260905100747 63 282 8.7 14.8 0.00 0.00 0.00 52 1011.3
20260905095253 64 292 13.0 16.5 0.00 0.00 0.00 50 1011.2
20260905093741 64 286 9.6 15.6 0.00 0.00 0.00 49 1011.3
20260905092246 63 289 9.6 12.2 0.00 0.00 0.00 50 1011.2
20260905090753 63 298 7.0 12.2 0.00 0.00 0.00 50 1011.2
20260905085241 63 288 12.2 16.5 0.00 0.00 0.00 49 1011.5
20260905083806 64 284 11.3 13.9 0.00 0.00 0.00 47 1011.1
20260905082256 64 288 9.6 14.8 0.00 0.00 0.00 47 1011.0
20260905080740 66 285 13.0 15.6 0.00 0.00 0.00 45 1010.7
20260905075245 67 292 10.4 15.6 0.00 0.00 0.00 44 1010.7
20260905073756 67 305 9.6 15.6 0.00 0.00 0.00 43 1010.5
20260905072243 68 292 9.6 14.8 0.00 0.00 0.00 43 1010.3
20260905070745 69 300 8.7 17.4 0.00 0.00 0.00 42 1010.0
20260905065254 69 295 8.7 15.6 0.00 0.00 0.00 42 1009.8
20260905063758 68 292 10.4 13.9 0.00 0.00 0.00 41 1008.7
20260905062248 68 290 8.7 17.4 0.00 0.00 0.00 40 1008.3
20260905060753 68 281 9.6 12.2 0.00 0.00 0.00 41 1008.2
20260905055240 67 279 8.7 9.6 0.00 0.00 0.00 40 1008.2
20260905053748 68 315 0.9 6.1 0.00 0.00 0.00 39 1008.2
20260905052252 69 278 2.6 9.6 0.00 0.00 0.00 38 1008.2
20260905050740 69 286 5.2 5.2 0.00 0.00 0.00 38 1008.0
20260905045243 71 282 5.2 11.3 0.00 0.00 0.00 37 1008.3
20260905043808 71 283 7.8 11.3 0.00 0.00 0.00 37 1007.8
20260905042258 71 304 7.8 12.2 0.00 0.00 0.00 37 1008.1
20260905040743 72 294 10.4 13.0 0.00 0.00 0.00 37 1008.1
20260905035313 72 288 7.8 10.4 0.00 0.00 0.00 37 1008.4
20260905033743 74 298 9.6 13.0 0.00 0.00 0.00 36 1008.1
20260905032253 74 305 4.3 7.0 0.00 0.00 0.00 35 1008.1
20260905030740 75 298 8.7 8.7 0.00 0.00 0.00 35 1007.9
20260905025244 77 296 5.2 9.6 0.00 0.00 0.00 34 1007.8
20260905023750 79 292 8.7 12.2 0.00 0.00 0.00 33 1007.6
20260905022320 81 288 12.2 13.9 0.00 0.00 0.00 32 1007.4
20260905020742 82 294 8.7 17.4 0.00 0.00 0.00 31 1007.0
20260905015247 84 285 10.4 17.4 0.00 0.00 0.00 30 1006.6
20260905013754 83 284 10.4 10.4 0.00 0.00 0.00 32 1006.6
20260905012258 86 122 0.0 0.9 0.00 0.00 0.00 28 1006.2
20260905010803 90 122 0.0 0.0 0.00 0.00 0.00 27 1006.2
20260905005255 92 122 0.0 0.9 0.00 0.00 0.00 25 1005.8
20260905003742 92 122 0.0 2.6 0.00 0.00 0.00 26 1005.7
20260905002254 93 122 1.7 3.5 0.00 0.00 0.00 24 1005.5